FW8793 Weather Reports


time (UTC)temp
C
wind
direction
speed
KPH
gust
KPH
rain 1hr
cm
rain 24hr
cm
rain mn
cm
humidity
%
barometer
mb
20260906121507 15 53 0.0 0.0 0.00 0.00 0.00 94 1019.4
20260906121000 15 44 0.0 0.0 0.00 0.00 0.00 95 1019.4
20260906120459 14 19 0.0 0.0 0.00 0.00 0.00 96 1019.3
20260906120004 14 26 0.0 0.0 0.00 0.00 0.00 96 1019.2
20260906115500 13 351 0.0 0.0 0.00 0.00 0.00 96 1019.2
20260906114959 13 351 0.0 0.0 0.00 0.00 0.00 96 1019.0
20260906114459 13 351 0.0 0.0 0.00 0.00 0.00 96 1018.9
20260906114002 13 351 0.0 0.0 0.00 0.00 0.00 95 1018.9
20260906113459 13 351 0.0 0.0 0.00 0.00 0.00 95 1018.9
20260906112959 13 351 0.0 0.0 0.00 0.00 0.00 95 1018.9
20260906112459 13 351 0.0 0.0 0.00 0.00 0.00 95 1018.8
20260906112006 13 351 0.0 0.0 0.00 0.00 0.00 95 1018.8
20260906111459 13 28 0.0 0.0 0.00 0.00 0.00 95 1018.9
20260906110959 13 22 0.0 0.0 0.00 0.00 0.00 95 1018.8
20260906110459 13 347 0.0 0.0 0.00 0.00 0.00 95 1018.7
20260906105459 12 28 0.0 0.0 0.00 0.00 0.00 94 1018.7
20260906104959 12 28 0.0 1.6 0.00 0.00 0.00 94 1018.7
20260906103959 12 36 1.6 3.2 0.00 0.00 0.00 93 1018.6
20260906103503 13 29 0.0 1.6 0.00 0.00 0.00 93 1018.7
20260906103002 13 29 0.0 1.6 0.00 0.00 0.00 93 1018.7
20260906102459 13 29 0.0 1.6 0.00 0.00 0.00 93 1018.8
20260906101959 13 25 0.0 4.8 0.00 0.00 0.00 93 1018.7
20260906101000 13 9 0.0 3.2 0.00 0.00 0.00 93 1018.6
20260906100459 13 44 0.0 1.6 0.00 0.00 0.00 93 1018.5
20260906100004 13 53 0.0 1.6 0.00 0.00 0.00 93 1018.5
20260906095502 13 51 0.0 3.2 0.00 0.00 0.00 92 1018.4
20260906095004 13 56 1.6 3.2 0.00 0.00 0.00 92 1018.4
20260906093959 13 38 0.0 4.8 0.00 0.00 0.00 92 1018.4
20260906093459 13 19 0.0 4.8 0.00 0.00 0.00 91 1018.4
20260906092959 13 19 0.0 1.6 0.00 0.00 0.00 91 1018.4
20260906092459 13 19 0.0 1.6 0.00 0.00 0.00 90 1018.5
20260906091959 13 19 0.0 0.0 0.00 0.00 0.00 90 1018.5
20260906091459 14 19 0.0 0.0 0.00 0.00 0.00 90 1018.5
20260906090504 14 19 0.0 1.6 0.00 0.00 0.00 90 1018.4
20260906090000 14 19 0.0 1.6 0.00 0.00 0.00 90 1018.2
20260906084958 14 19 1.6 4.8 0.00 0.00 0.00 89 1018.1
20260906084458 14 30 1.6 4.8 0.00 0.00 0.00 89 1018.0
20260906083958 14 19 1.6 4.8 0.00 0.00 0.00 89 1018.0
20260906083503 14 68 3.2 4.8 0.00 0.00 0.00 89 1018.0
20260906082959 14 55 1.6 4.8 0.00 0.00 0.00 89 1018.0
20260906082459 15 58 1.6 6.4 0.00 0.00 0.00 88 1017.8
20260906081959 15 58 4.8 6.4 0.00 0.00 0.00 88 1017.9
20260906081501 15 78 1.6 4.8 0.00 0.00 0.00 88 1017.9
20260906080459 15 35 3.2 8.0 0.00 0.00 0.00 88 1017.8
20260906080003 15 74 3.2 6.4 0.00 0.00 0.00 87 1017.8
20260906075459 15 68 3.2 8.0 0.00 0.00 0.00 87 1017.7
20260906074959 15 55 3.2 8.0 0.00 0.00 0.00 87 1017.7
20260906073959 15 44 3.2 4.8 0.00 0.00 0.00 87 1017.7
20260906072959 15 56 1.6 4.8 0.00 0.00 0.00 86 1017.6
20260906072459 15 73 1.6 6.4 0.00 0.00 0.00 86 1017.6
20260906070959 15 67 3.2 8.0 0.00 0.00 0.00 86 1017.7
20260906070504 15 55 3.2 8.0 0.00 0.00 0.00 85 1017.7
20260906070002 15 57 3.2 9.7 0.00 0.00 0.00 85 1017.7
20260906065459 16 103 4.8 9.7 0.00 0.00 0.00 85 1017.8
20260906064959 16 75 3.2 6.4 0.00 0.00 0.00 85 1017.7
20260906064500 16 53 3.2 6.4 0.00 0.00 0.00 85 1017.7
20260906064002 16 69 3.2 8.0 0.00 0.00 0.00 85 1017.7
20260906063459 16 58 3.2 8.0 0.00 0.00 0.00 86 1017.7
20260906062958 16 47 1.6 6.4 0.00 0.00 0.00 86 1017.7
20260906061959 16 76 3.2 8.0 0.00 0.00 0.00 86 1017.7
20260906060959 16 65 3.2 6.4 0.00 0.00 0.00 86 1017.7
20260906060001 16 46 3.2 4.8 0.00 0.00 0.00 85 1017.6
20260906055459 16 30 3.2 4.8 0.00 0.00 0.00 85 1017.6
20260906055004 16 46 1.6 3.2 0.00 0.00 0.00 84 1017.6
20260906054501 16 38 0.0 3.2 0.00 0.00 0.00 84 1017.6
20260906053959 16 46 1.6 4.8 0.00 0.00 0.00 83 1017.6
20260906053459 17 67 1.6 4.8 0.00 0.00 0.00 83 1017.6
20260906052502 17 53 3.2 8.0 0.00 0.00 0.00 83 1017.6
20260906050459 17 48 3.2 9.7 0.00 0.00 0.00 82 1017.2
20260906050001 17 55 4.8 8.0 0.00 0.00 0.00 82 1017.3
20260906045001 17 46 4.8 9.7 0.00 0.00 0.00 81 1017.4
20260906044459 17 36 4.8 8.0 0.00 0.00 0.00 81 1017.3
20260906043959 17 92 3.2 9.7 0.00 0.00 0.00 81 1017.1
20260906042459 18 42 4.8 9.7 0.00 0.00 0.00 81 1016.9
20260906041959 18 74 4.8 11.3 0.00 0.00 0.00 81 1016.8
20260906041459 18 49 6.4 12.9 0.00 0.00 0.00 82 1016.9
20260906040959 18 82 4.8 11.3 0.00 0.00 0.00 82 1016.9
20260906035459 18 17 6.4 9.7 0.00 0.00 0.00 83 1016.8
20260906034959 18 62 3.2 8.0 0.00 0.00 0.00 84 1016.8
20260906034459 18 42 3.2 9.7 0.00 0.00 0.00 85 1016.7
20260906033959 18 70 6.4 9.7 0.00 0.00 0.00 85 1016.7
20260906032959 18 54 3.2 8.0 0.00 0.00 0.00 85 1016.7
20260906032459 18 47 4.8 8.0 0.00 0.00 0.00 86 1016.5
20260906032004 18 74 3.2 8.0 0.00 0.00 0.00 86 1016.6
20260906031502 18 74 1.6 4.8 0.00 0.00 0.00 85 1016.7
20260906030005 19 57 1.6 3.2 0.00 0.00 0.00 84 1016.6
20260906025503 19 73 0.0 3.2 0.00 0.00 0.00 84 1016.5
20260906025000 20 80 1.6 3.2 0.00 0.00 0.00 83 1016.4
20260906023501 20 29 1.6 6.4 0.00 0.00 0.00 82 1016.3
20260906022959 20 46 1.6 6.4 0.00 0.00 0.00 82 1016.2
20260906022500 20 57 3.2 6.4 0.00 0.00 0.00 82 1016.2
20260906022000 20 49 3.2 6.4 0.00 0.00 0.00 82 1016.1
20260906021500 20 44 3.2 6.4 0.00 0.00 0.00 82 1016.0
20260906021000 20 75 3.2 6.4 0.00 0.00 0.00 82 1016.0
20260906020500 21 64 3.2 8.0 0.00 0.00 0.00 82 1015.9
20260906020006 21 52 3.2 8.0 0.00 0.00 0.00 82 1015.9
20260906015500 21 64 3.2 6.4 0.00 0.00 0.00 83 1015.9
20260906014504 21 55 3.2 6.4 0.00 0.00 0.00 83 1016.0
20260906013500 21 57 1.6 8.0 0.00 0.00 0.00 85 1015.9
20260906013000 21 63 1.6 6.4 0.00 0.00 0.00 85 1015.8
20260906012500 21 26 1.6 4.8 0.00 0.00 0.00 86 1015.8
20260906011000 21 61 0.0 0.0 0.00 0.00 0.00 87 1015.5
20260906010500 21 61 0.0 0.0 0.00 0.00 0.00 87 1015.5
20260906010004 21 61 0.0 1.6 0.00 0.00 0.00 88 1015.5
20260906005500 21 65 0.0 4.8 0.00 0.00 0.00 88 1015.3
20260906005004 21 62 1.6 4.8 0.00 0.00 0.00 88 1015.3
20260906004507 21 49 0.0 1.6 0.00 0.00 0.00 89 1015.3
20260906003502 21 42 0.0 0.0 0.00 0.00 0.00 90 1015.2
20260906003000 21 42 0.0 0.0 0.00 0.00 0.00 89 1015.2
20260906002500 21 42 0.0 1.6 0.00 0.00 0.00 89 1015.1
20260906001959 21 42 0.0 1.6 0.00 0.00 0.00 89 1015.2
20260906001500 21 42 0.0 1.6 0.00 0.00 0.00 88 1015.2
20260906001001 22 42 0.0 0.0 0.00 0.00 0.00 88 1015.3
20260906000503 22 42 0.0 0.0 0.00 0.00 0.00 87 1015.2
20260906000005 22 42 0.0 0.0 0.00 0.00 0.00 87 1015.2
20260905235459 22 42 0.0 0.0 0.00 0.00 0.00 87 1015.2
20260905235000 22 42 0.0 0.0 0.00 0.00 0.00 86 1015.1
20260905234500 22 42 0.0 0.0 0.00 0.00 0.00 85 1015.1
20260905234000 22 42 0.0 0.0 0.00 0.00 0.00 84 1015.2
20260905233459 22 42 0.0 1.6 0.00 0.00 0.00 84 1015.2
20260905232003 23 13 0.0 3.2 0.00 0.00 0.00 82 1014.9
20260905231500 23 24 1.6 3.2 0.00 0.00 0.00 82 1014.9
20260905230500 23 26 0.0 1.6 0.00 0.00 0.00 81 1015.1
20260905230002 23 40 0.0 4.8 0.00 0.00 0.00 81 1015.1
20260905225459 23 48 3.2 6.4 0.00 0.00 0.00 80 1015.0
20260905224500 23 46 1.6 6.4 0.00 0.00 0.00 81 1014.9
20260905223500 23 53 3.2 6.4 0.00 0.00 0.00 81 1015.0
20260905223000 23 12 3.2 6.4 0.00 0.00 0.00 80 1014.9
20260905222500 23 61 4.8 8.0 0.00 0.00 0.00 79 1014.9
20260905222004 23 35 4.8 8.0 0.00 0.00 0.00 80 1014.8
20260905221500 23 25 1.6 9.7 0.00 0.00 0.00 80 1014.7
20260905221004 23 11 4.8 9.7 0.00 0.00 0.00 80 1014.6
20260905220500 23 76 4.8 11.3 0.00 0.00 0.00 80 1014.6
20260905220005 23 32 6.4 11.3 0.00 0.00 0.00 80 1014.5
20260905215500 23 65 6.4 19.3 0.00 0.00 0.00 80 1014.4
20260905215000 23 22 6.4 19.3 0.00 0.00 0.00 80 1014.5
20260905214500 23 61 6.4 14.5 0.00 0.00 0.00 81 1014.6
20260905213502 23 346 6.4 16.1 0.00 0.00 0.00 81 1014.5
20260905212959 23 5 8.0 17.7 0.00 0.00 0.00 81 1014.6
20260905212501 23 78 11.3 17.7 0.00 0.00 0.00 81 1014.5
20260905211959 23 76 4.8 12.9 0.00 0.00 0.00 83 1014.5
20260905211459 23 80 4.8 9.7 0.00 0.00 0.00 85 1014.4
20260905211000 23 71 6.4 16.1 0.00 0.00 0.00 85 1014.4
20260905210500 23 5 6.4 16.1 0.00 0.00 0.00 85 1014.4
20260905210002 23 92 4.8 9.7 0.00 0.00 0.00 86 1014.5
20260905205459 23 59 4.8 9.7 0.00 0.00 0.00 87 1014.4
20260905205000 23 108 4.8 9.7 0.00 0.00 0.00 87 1014.4
20260905204500 22 54 4.8 11.3 0.00 0.00 0.00 88 1014.5
20260905204000 22 59 4.8 16.1 0.00 0.00 0.00 87 1014.6
20260905203000 22 28 4.8 9.7 0.00 0.00 0.00 88 1014.6
20260905202003 22 78 6.4 9.7 0.00 0.00 0.00 89 1014.8
20260905201500 22 43 3.2 14.5 0.00 0.00 0.00 89 1014.9
20260905201000 21 16 6.4 14.5 0.00 0.00 0.00 89 1014.9
20260905200500 21 78 6.4 14.5 0.00 0.00 0.00 89 1014.8
20260905200004 21 57 6.4 12.9 0.00 0.00 0.00 90 1014.9
20260905195000 21 57 4.8 14.5 0.00 0.00 0.00 90 1014.8
20260905194459 21 19 4.8 14.5 0.00 0.00 0.00 90 1014.9
20260905194000 21 22 6.4 14.5 0.00 0.00 0.00 90 1014.9
20260905193459 21 340 4.8 8.0 0.00 0.00 0.00 91 1015.0
20260905193006 21 40 4.8 9.7 0.00 0.00 0.00 90 1015.0
20260905192500 21 42 4.8 16.1 0.00 0.00 0.00 90 1015.0
20260905191500 21 59 6.4 16.1 0.00 0.00 0.00 91 1015.0
20260905190959 21 69 3.2 16.1 0.00 0.00 0.00 91 1015.0
20260905190500 21 59 8.0 14.5 0.00 0.00 0.00 91 1015.1
20260905190004 21 57 6.4 16.1 0.00 0.00 0.00 91 1015.2
20260905185459 21 42 8.0 16.1 0.00 0.00 0.00 91 1015.1
20260905185000 21 59 6.4 14.5 0.00 0.00 0.00 92 1015.2
20260905184504 21 62 6.4 14.5 0.00 0.00 0.00 91 1015.2
20260905184000 21 79 4.8 16.1 0.00 0.00 0.00 91 1015.3
20260905183500 21 57 8.0 16.1 0.00 0.00 0.00 91 1015.3
20260905182500 21 56 4.8 17.7 0.00 0.00 0.00 92 1015.2
20260905182000 21 63 6.4 17.7 0.00 0.00 0.00 92 1015.1
20260905181504 21 56 6.4 14.5 0.00 0.00 0.00 92 1015.2
20260905181000 21 49 4.8 11.3 0.00 0.00 0.00 92 1015.2
20260905180500 21 51 8.0 12.9 0.00 0.00 0.00 92 1015.2
20260905180004 21 70 6.4 9.7 0.00 0.00 0.00 92 1015.3
20260905174959 20 37 8.0 12.9 0.00 0.00 0.00 92 1015.2
20260905174500 20 60 4.8 9.7 0.00 0.00 0.00 92 1015.1
20260905174000 20 54 4.8 9.7 0.00 0.00 0.00 92 1015.1
20260905173000 20 35 4.8 12.9 0.00 0.00 0.00 93 1015.0
20260905172000 20 11 6.4 9.7 0.00 0.00 0.00 92 1015.2
20260905171500 20 328 6.4 11.3 0.00 0.00 0.00 92 1015.2
20260905171000 20 36 6.4 16.1 0.00 0.00 0.00 92 1015.2
20260905170459 20 67 9.7 16.1 0.00 0.00 0.00 91 1015.2
20260905170003 21 49 6.4 16.1 0.00 0.00 0.00 91 1015.2
20260905165500 21 38 9.7 16.1 0.00 0.08 0.00 90 1015.2
20260905165000 21 325 6.4 16.1 0.00 0.08 0.00 90 1015.1
20260905164003 21 23 4.8 17.7 0.00 0.08 0.00 91 1015.1
20260905163459 21 14 4.8 16.1 0.00 0.08 0.00 90 1015.2
20260905163000 21 64 9.7 16.1 0.00 0.08 0.00 90 1015.2
20260905162502 21 81 6.4 14.5 0.00 0.08 0.00 90 1015.2
20260905161959 21 15 4.8 14.5 0.00 0.08 0.00 90 1015.2
20260905161500 21 20 4.8 14.5 0.00 0.08 0.00 90 1015.1
20260905160959 21 47 4.8 9.7 0.00 0.08 0.00 90 1015.1
20260905160500 21 11 4.8 9.7 0.00 0.08 0.00 90 1015.0
20260905160004 21 51 4.8 9.7 0.00 0.08 0.00 90 1015.1
20260905155459 21 59 3.2 11.3 0.00 0.18 0.00 90 1015.0
20260905154959 21 17 6.4 11.3 0.00 0.18 0.00 90 1014.9
20260905154500 21 65 8.0 12.9 0.00 0.18 0.00 91 1015.0
20260905153959 21 58 4.8 14.5 0.00 0.18 0.00 91 1014.9
20260905153502 21 68 6.4 14.5 0.00 0.18 0.00 91 1014.8
20260905152959 21 69 8.0 14.5 0.00 0.18 0.00 91 1014.8
20260905152459 21 24 6.4 14.5 0.00 0.18 0.00 91 1014.7
20260905152000 21 42 6.4 11.3 0.00 0.18 0.00 91 1014.8
20260905151502 21 32 6.4 11.3 0.00 0.18 0.00 92 1014.8
20260905150959 20 344 4.8 12.9 0.00 0.18 0.00 92 1014.8
20260905150459 20 30 4.8 12.9 0.00 0.18 0.00 92 1014.8
20260905150003 20 51 4.8 14.5 0.00 0.18 0.00 92 1014.8
20260905144959 21 57 6.4 16.1 0.00 0.53 0.00 92 1014.7
20260905144500 21 46 6.4 17.7 0.00 0.53 0.00 92 1014.6
20260905144002 20 77 9.7 17.7 0.00 0.53 0.00 92 1014.6
20260905143500 21 5 8.0 16.1 0.00 0.53 0.00 92 1014.5
20260905142959 21 44 6.4 16.1 0.00 0.53 0.00 93 1014.5
20260905142459 20 69 8.0 14.5 0.00 0.53 0.00 93 1014.4
20260905141959 20 41 6.4 14.5 0.00 0.53 0.00 93 1014.5
20260905141459 20 60 4.8 14.5 0.00 0.53 0.00 94 1014.4
20260905140959 20 51 6.4 11.3 0.00 0.53 0.00 94 1014.4
20260905140005 20 105 8.0 14.5 0.00 0.53 0.00 95 1014.4
20260905135000 20 43 8.0 14.5 0.00 1.98 0.00 95 1014.3
20260905134500 20 36 4.8 12.9 0.00 1.98 0.00 96 1014.3
20260905133959 20 41 6.4 11.3 0.00 1.98 0.00 96 1014.4
20260905132959 20 75 8.0 12.9 0.00 1.98 0.00 96 1014.3
20260905132459 20 5 6.4 12.9 0.00 1.98 0.00 97 1014.2
20260905130959 20 69 8.0 12.9 0.00 1.98 0.00 97 1014.1
20260905130459 20 65 3.2 14.5 0.00 1.98 0.00 97 1014.0
20260905130004 20 32 4.8 14.5 0.00 1.98 0.00 97 1014.0
20260905125459 20 57 4.8 17.7 0.00 2.21 0.00 97 1014.0
20260905124959 20 49 11.3 17.7 0.00 2.21 0.00 97 1014.0
20260905123959 20 325 4.8 9.7 0.00 2.21 0.00 97 1013.8
20260905123459 20 36 4.8 11.3 0.00 2.21 0.00 97 1013.7
20260905122959 20 72 4.8 9.7 0.00 2.21 0.00 97 1013.5
20260905122459 20 39 3.2 12.9 0.00 2.21 0.00 97 1013.6
20260905121959 21 66 4.8 12.9 0.00 2.21 0.00 97 1013.6